Tracking 22283 objects as of 28-Jan-2021
HD Live streaming from Space Station
objects crossing your sky now

STARLINK-1215

Track STARLINK-1215 now!
10-day predictions
STARLINK-1215 is classified as:


NORAD ID: 45225
Int'l Code: 2020-012AZ
Perigee: 552.4 km
Apogee: 556.3 km
Inclination: 53.1 °
Period: 95.6 minutes
Semi major axis: 6925 km
RCS: Unknown
Launch date: February 17, 2020
Source: United States (US)
Launch site: AIR FORCE EASTERN TEST RANGE (AFETR)
aabbcc
Your satellite tracking list
Your tracking list is empty




NASA's NSSDC Master Catalog

Two Line Element Set (TLE):
1 45225U 20012AZ  21027.70114399 -.00000763  00000-0 -32286-4 0  9992
2 45225  53.0587 107.8436 0002848  78.9251 281.2058 15.06393867 53957
Source of the keplerian elements: AFSPC